Regional Weather Roundup
Issued by NWS Cleveland, OH

Home | Current Version | Previous Version | Graphics & Text | Print | Product List | Glossary On
Versions: 1 2 3 4 5 6 7 8 9 10 11 12 13 14 15 16 17 18 19 20 21 22 23 24 25 26 27 28 29 30 31 32 33 34 35 36 37 38 39 40 41 42 43 44 45 46 47 48 49 50
000
ASUS41 KCLE 201502
RWRCLE
OHIO REGIONAL WEATHER ROUNDUP
NATIONAL WEATHER SERVICE CLEVELAND, OH
1000 AM EST FRI JAN 20 2017

NOTE: "FAIR" INDICATES FEW OR NO CLOUDS BELOW 12,000 FEET WITH NO
SIGNIFICANT WEATHER AND/OR OBSTRUCTIONS TO VISIBILITY.

OHZ001>008-015>018-024>027-034-035-043-044-201600-
   NORTHWEST OHIO

CITY           SKY/WX    TMP DP  RH WIND       PRES   REMARKS
DEFIANCE       CLOUDY    37  36  96 CALM      29.64R FOG
FINDLAY        CLOUDY    47  43  86 S9        29.62R
TOLEDO EXPRESS LGT RAIN  36  36 100 E5        29.64R FOG
TOLEDO EXEC    CLOUDY    37  37 100 NE5       29.65R FOG
LIMA           CLOUDY    48  48 100 SW10      29.63R FOG
$$

OHZ009>014-019>023-028>033-038-089-201600-
   NORTHEAST OHIO

CITY           SKY/WX    TMP DP  RH WIND       PRES   REMARKS
CLE-HOPKINS    LGT RAIN  44  40  85 S12       29.68R FOG
CLE-LAKEFRONT  LGT RAIN  43  39  86 SE16G23   29.66R
CUY CO. ARPT   LGT RAIN  43  41  93 S13G22    29.67S FOG
LORAIN-ELYRIA  CLOUDY    43  39  86 S15       29.65S
ASHTABULA      LGT RAIN  39  38  96 SE8       29.71F FOG
AKRON-CANTON   LGT RAIN  43  40  89 S14       29.68R FOG
WOOSTER        CLOUDY    43  41  93 S10       29.67R
MANSFIELD      CLOUDY    45  45 100 S13       29.64R
YOUNGSTOWN     LGT RAIN  40  38  93 SE13      29.70S FOG
$$

OHZ042-051>053-060>062-070>072-077>081-201600-
  SOUTHWEST OHIO

CITY           SKY/WX    TMP DP  RH WIND       PRES   REMARKS
CINC-COVINGTON CLOUDY    55  53  93 SW8       29.71R
CINC-LUNKEN    CLOUDY    56  54  93 S9        29.73R
HAMILTON       CLOUDY    56  54  93 SW7G17    29.71R
DAYTON         CLOUDY    51  51 100 SW14      29.68R
WRIGHT-PAT AFB CLOUDY    54  54 100 SW15      29.68R
DAYTON GENERAL CLOUDY    54  52  93 SW14      29.69R
WILMINGTON     CLOUDY    54  52  93 SW20G26   29.70R
$$

OHZ036-037-039>041-045>050-054>059-063>069-073>076-082>088-201600-
  CENTRAL AND SOUTHEAST OHIO

CITY           SKY/WX    TMP DP  RH WIND       PRES   REMARKS
COLUMBUS       CLOUDY    51  48  89 S9        29.69R
OSU AIRPORT    CLOUDY    48  48 100 S9        29.67R
BOLTON FIELD   CLOUDY    48  48 100 S9        29.69R
RICKENBACK AFB NOT AVBL
NEWARK         LGT RAIN  49  46  90 S8        29.70R
MARION         CLOUDY    47  45  93 S14       29.66R FOG
LANCASTER      CLOUDY    53  50  89 SW10      29.71R
ZANESVILLE     LGT RAIN  49  47  93 S9        29.71R
NEW PHILLY     NOT AVBL
$$




USA.gov is the U.S. government's official web portal to all federal, state and local government web resources and services.